This demonstration page uses our WeatherBlox Daily Observations layout. Learn more.

Left ArrowRight Arrow

40.92945, -100.16068

Hourly Observations for February 7, 2015

Temp ( °F °C ) Dew Point ( °F °C ) Humidity (%) Winds ( mph kmh ) Pressure ( in mb ) Visibility ( mi km ) Precip ( " mm )
12:15 am 00:15 Clear 47 8.3 32 -0.2 55 55 SW 5 7 29.77 1008 10 16 N/A
12:35 am 00:35 Clear 46 7.9 31 -0.4 56 56 W 3 6 29.77 1008 10 16 N/A
12:55 am 00:55 Clear 43 6.3 31 -0.8 61 61 Calm 29.80 1009 10 16 N/A
1:15 am 01:15 Clear 38 3.3 29 -1.7 70 70 Calm 29.83 1010 10 16 N/A
1:35 am 01:35 Clear 36 2.2 29 -1.9 75 75 Calm 29.80 1009 10 16 N/A
1:55 am 01:55 Clear 35 1.6 29 -1.9 78 78 Calm 29.80 1009 10 16 N/A
2:15 am 02:15 Clear 35 1.6 29 -1.6 80 80 Calm 29.80 1009 10 16 N/A
2:35 am 02:35 Clear 36 2.1 30 -1.3 78 78 SW 3 6 29.80 1009 10 16 N/A
2:55 am 02:55 Clear 36 2.4 30 -1.3 77 77 Calm 29.80 1009 10 16 N/A
3:15 am 03:15 Clear 33 0.8 28 -2.2 81 81 W 3 6 29.83 1010 10 16 N/A
3:35 am 03:35 Clear 32 0 28 -2.3 85 85 WNW 6 9 29.83 1010 10 16 N/A
3:55 am 03:55 Clear 32 0 28 -2.1 86 86 W 6 9 29.80 1009 10 16 N/A
4:15 am 04:15 Clear 32 0 28 -2.1 86 86 W 7 11 29.80 1009 10 16 N/A
4:35 am 04:35 Clear 34 1.3 29 -1.7 81 81 WNW 8 13 29.77 1008 10 16 N/A
4:55 am 04:55 Clear 34 1.2 29 -1.7 81 81 WNW 9 15 29.77 1008 10 16 N/A
5:15 am 05:15 Clear 33 0.7 29 -1.7 84 84 WNW 10 17 29.77 1008 10 16 N/A
5:35 am 05:35 Clear 33 0.8 29 -1.7 84 84 WNW 10 17 29.77 1008 10 16 N/A
5:55 am 05:55 Clear 34 0.9 29 -1.8 82 82 WNW 9 15 29.77 1008 10 16 N/A
6:15 am 06:15 Clear 33 0.8 29 -1.5 85 85 WNW 10 17 29.77 1008 10 16 N/A
6:35 am 06:35 Clear 34 1 29 -1.5 84 84 WNW 10 17 29.77 1008 10 16 N/A
6:55 am 06:55 Clear 34 1 29 -1.5 84 84 W 9 15 29.77 1008 10 16 N/A
7:15 am 07:15 Clear 33 0.5 29 -1.9 84 84 WNW 7 11 29.77 1008 10 16 N/A
7:35 am 07:35 Clear 32 0 28 -2.2 85 85 W 6 9 29.80 1009 10 16 N/A
7:55 am 07:55 Sunny 32 -0.2 28 -2.2 87 87 NW 7 11 29.80 1009 10 16 N/A
8:15 am 08:15 Sunny 32 0.2 29 -1.6 88 88 NW 7 11 29.80 1009 10 16 N/A
8:35 am 08:35 Sunny 35 1.7 31 -0.8 84 84 WNW 6 9 29.77 1008 10 16 N/A
8:55 am 08:55 Sunny 37 2.9 32 -0.2 80 80 WNW 5 7 29.77 1008 10 16 N/A
9:15 am 09:15 Sunny 39 4 32 0 75 75 WNW 6 9 29.74 1007 10 16 N/A
9:35 am 09:35 Sunny 42 5.5 33 0.5 71 71 WNW 6 9 29.74 1007 10 16 N/A
9:55 am 09:55 Sunny 45 7 33 0.8 65 65 NNW 8 13 29.71 1006 10 16 N/A
10:15 am 10:15 Sunny 47 8.1 34 1.3 63 63 NW 7 11 29.71 1006 10 16 N/A
10:35 am 10:35 Sunny 51 10.3 35 1.7 56 56 WNW 8 13 29.71 1006 10 16 N/A
10:55 am 10:55 Sunny 53 11.5 35 1.9 52 52 WNW 10 17 29.68 1005 10 16 N/A
11:15 am 11:15 Sunny 55 12.6 36 2.2 49 49 WNW 13 20 29.68 1005 10 16 N/A
11:35 am 11:35 Sunny 57 13.8 36 2.4 46 46 WNW 14 22 29.65 1004 10 16 N/A
11:55 am 11:55 Sunny 59 15 38 3.1 45 45 WNW 14 22 29.65 1004 10 16 N/A
12:15 pm 12:15 Sunny 62 16.4 38 3.1 41 41 WNW 15 24 29.65 1004 10 16 N/A
12:35 pm 12:35 Sunny 63 17.2 37 2.9 39 39 NW 16 26 29.62 1003 10 16 N/A
12:55 pm 12:55 Sunny 64 18 36 2.2 35 35 WNW 21 33 29.62 1003 10 16 N/A
1:15 pm 13:15 Sunny 65 18.5 37 2.7 35 35 WNW 22 35 29.62 1003 10 16 N/A
1:35 pm 13:35 Sunny 66 19 36 2 32 32 NW 21 33 29.62 1003 10 16 N/A
1:55 pm 13:55 Sunny 66 18.7 36 2.1 33 33 NW 22 35 29.62 1003 10 16 N/A
2:15 pm 14:15 Sunny 65 18.1 38 3.6 38 38 NW 17 28 29.59 1002 10 16 N/A
2:35 pm 14:35 Sunny 67 19.2 38 3.6 36 36 NW 18 30 29.59 1002 10 16 N/A
2:55 pm 14:55 Sunny 67 19.5 38 3.4 35 35 NW 15 24 29.56 1001 10 16 N/A
3:15 pm 15:15 Sunny 68 19.8 38 3.1 33 33 NNW 20 31 29.56 1001 10 16 N/A
3:35 pm 15:35 Sunny 68 20.2 39 3.9 34 34 NNW 14 22 29.56 1001 10 16 N/A
3:55 pm 15:55 Sunny 69 20.6 38 3.5 33 33 NNW 12 19 29.56 1001 10 16 N/A
4:15 pm 16:15 Sunny 69 20.3 38 3.6 33 33 NNW 7 11 29.56 1001 10 16 N/A
4:35 pm 16:35 Sunny 68 20 39 3.9 35 35 WNW 6 9 29.62 1003 10 16 N/A
4:55 pm 16:55 Sunny 67 19.7 38 3.3 34 34 Calm 29.56 1001 10 16 N/A
5:15 pm 17:15 Sunny 66 19.1 40 4.4 38 38 Calm 29.62 1003 10 16 N/A
5:35 pm 17:35 Sunny 61 16.2 42 5.6 50 50 WSW 6 9 29.65 1004 10 16 N/A
5:55 pm 17:55 Sunny 58 14.4 39 4.1 50 50 WSW 5 7 29.65 1004 10 16 N/A
6:15 pm 18:15 Clear 54 12.3 38 3.4 55 55 SW 7 11 29.68 1005 10 16 N/A
6:35 pm 18:35 Clear 54 12.1 37 2.8 53 53 SW 7 11 29.68 1005 10 16 N/A
6:55 pm 18:55 Clear 52 11.3 36 2 53 53 SW 7 11 29.68 1005 10 16 N/A
7:15 pm 19:15 Clear 49 9.6 36 2.2 60 60 WSW 7 11 29.71 1006 10 16 N/A
7:35 pm 19:35 Clear 48 8.9 36 2 62 62 SW 7 11 29.71 1006 10 16 N/A
7:55 pm 19:55 Clear 49 9.3 35 1.4 58 58 SSW 6 9 29.71 1006 10 16 N/A
8:15 pm 20:15 Clear 50 9.8 35 1.6 57 57 SW 9 15 29.71 1006 10 16 N/A
8:35 pm 20:35 Clear 48 9.1 35 1.5 59 59 WSW 6 9 29.71 1006 10 16 N/A
8:55 pm 20:55 Clear 48 9 35 1.6 60 60 WSW 8 13 29.71 1006 10 16 N/A
9:15 pm 21:15 Clear 50 10.1 35 1.4 55 55 WSW 9 15 29.74 1007 10 16 N/A
9:35 pm 21:35 Clear 51 10.7 34 1.1 52 52 WSW 9 15 29.71 1006 10 16 N/A
9:55 pm 21:55 Clear 51 10.7 33 0.6 50 50 WSW 8 13 29.71 1006 10 16 N/A
10:15 pm 22:15 Clear 52 11.2 32 0.2 47 47 WSW 9 15 29.68 1005 10 16 N/A
10:35 pm 22:35 Clear 50 9.8 32 0 51 51 WSW 12 19 29.74 1007 10 16 N/A
10:55 pm 22:55 Clear 49 9.7 33 0.5 53 53 W 15 24 29.74 1007 10 16 N/A
11:15 pm 23:15 Clear 49 9.6 33 0.4 53 53 W 16 26 29.74 1007 10 16 N/A
11:35 pm 23:35 Clear 55 12.9 32 0 41 41 W 17 28 29.71 1006 10 16 N/A
11:55 pm 23:55 Clear 56 13.3 31 -0.5 39 39 W 17 28 29.71 1006 10 16 N/A

Powered by AerisWeather